Home   Weather   Montpelier   Past weeks

Flag for USA Past Weather in Montpelier, Vermont, USA — Yesterday and Last 2 Weeks

42 °F


Feels Like: 34 °F
Forecast: 36 / 43 °F
Wind: 17 mph from Northwest

Location: Knapp State Airport

Current Time: Oct 24, 2016 at 10:13:50 AM

Latest Report: Oct 24, 2016 at 9:51 AM

Visibility: 10 mi

Pressure: 29.85 "Hg

Humidity: 57%

Dew Point: 28 °F

Location of MontpelierLocation

Past Weather in Montpelier — Graph


Montpelier Temperature Yesterday

Maximum temperature yesterday: 46 °F (at 3:51 PM)
Minimum temperature yesterday: 33 °F (at 3:54 AM)
Average temperature yesterday: 39 °F

High & Low Weather Summary for the Past Weeks

High74 °F (Oct 18, 11:51 PM)100% (Oct 11, 8:00 AM)30.55 "Hg (Oct 11, 8:00 AM)
Low25 °F (Oct 15, 5:51 AM)22% (Oct 11, 2:51 PM)29.30 "Hg (Oct 22, 6:03 PM)
Average49 °F76%30.06 "Hg
* Reported Oct 9 8:51 AM — Oct 24 8:51 AM, Montpelier, Weather by CustomWeather, © 2016

Note: Actual official high and low records may vary slightly from our data, if they occured in-between our weather recording intervals... More about our weather records


Montpelier Weather History for the Previous 24 Hours

Scroll right to see more
Time TempWeatherWind HumidityBarometerVisibility
8:51 AM
Mon, Oct 24
41 °FOvercast.8 mph65%29.84 "Hg10 mi
7:51 AM40 °FMostly cloudy.7 mph73%29.82 "Hg10 mi
6:51 AM42 °FOvercast.12 mph65%29.80 "Hg10 mi
5:51 AM42 °FOvercast.5 mph65%29.78 "Hg10 mi
4:51 AM43 °FOvercast.8 mph62%29.77 "Hg10 mi
3:51 AM43 °FMostly cloudy.7 mph65%29.75 "Hg10 mi
2:51 AM43 °FOvercast.8 mph65%29.75 "Hg10 mi
1:51 AM43 °FPassing clouds.12 mph62%29.74 "Hg10 mi
12:51 AM44 °FPassing clouds.10 mph60%29.75 "Hg10 mi
11:51 PM
Sun, Oct 23
44 °FOvercast.6 mph60%29.78 "Hg10 mi
10:51 PM44 °FOvercast.5 mph63%29.78 "Hg10 mi
9:51 PM44 °FOvercast.6 mph60%29.77 "Hg10 mi
8:51 PM37 °FClear.3 mph100%29.77 "Hg10 mi
7:51 PM41 °FClear.3 mph80%29.74 "Hg10 mi
6:51 PM44 °FClear.10 mph73%29.72 "Hg10 mi
5:51 PM45 °FSunny.13 mph68%29.70 "Hg10 mi
4:51 PM45 °FSunny.15 mphN/A29.68 "Hg10 mi
3:51 PM46 °FScattered clouds.12 mphN/A29.67 "Hg10 mi
2:51 PM43 °FOvercast.12 mphN/A29.65 "Hg10 mi
1:51 PM41 °FOvercast.13 mphN/A29.63 "Hg10 mi
12:51 PM39 °FOvercast.7 mphN/A29.62 "Hg10 mi
11:51 AM37 °FOvercast.14 mphN/A29.61 "Hg10 mi
10:51 AM36 °FLight rain. Mostly cloudy.10 mphN/A29.60 "Hg10 mi
Weather by CustomWeather, © 2016

See weather overviewHow to use our weather pages